User: anonymous   Login
Location: Starry Hill Observatory
(46.8582°N, 122.3590°W)
Time: 14:22:16
(UTC-07:00)
Language:

Cosmos 1300 Rocket - Orbit

View from above orbital plane
View from above orbital plane
View from above satellite
View from above satellite

Ground track
Ground track

The orbit data is extracted from the following two-line orbital elements,

1 12786U 81082B   17141.71418381 +.00000108 +00000-0 +99711-5 0  9991
2 12786 082.4884 352.6598 0017194 347.5127 012.5660 14.84681718909780
Epoch (UTC): 21 May 2017 17:08:25
Eccentricity: 0.0017194
inclination: 82.4884°
perigee height: 602 km
apogee height: 626 km
right ascension of ascending node: 352.6598°
argument of perigee: 347.5127°
revolutions per day: 14.84681718
mean anomaly at epoch: 12.5660°
orbit number at epoch: 90978

The dashed part of the orbit path shows where the satellite is in the earth's shadow,  

DLR